Powrót do katalogu

DELTA 1 DEB

AktywnySSO
NORAD 12164·DEBRIS·🇺🇸 United States

Wystrzelony Mar 5, 1978 z Vandenberg Space Force Base

Loading…

Następne Przeloty (najbliższe 24 godziny)

TLE

ŚwieżeSource: Space-Track

Epoka: Sep 14, 2026, 08:39 UTC

1 12164U 78026D   26257.36055882  .00000789  00000-0  24820-3 0  9999
2 12164  98.6022 293.7931 0058504 189.9743 235.9326 14.42225612519969

Śledź DELTA 1 DEB w czasie rzeczywistym z AllMySat

Download on the App Store